Hourly Data Report for July 28, 2021

POND INLET A
NUNAVUT
Current Station Operator: NAVCAN

72°41'22.000" N
77°58'08.000" W
61.60 m
2403206
71095
YIO

Download Data

Hourly Data (July 2021)
Hourly Data Report for July 28, 2021
TIME
LST
Temp Definition
°C
Dew Point Definition
°C
Rel Hum Definition
%
Precip. Amount Definition
mm

Wind Dir Definition
10's deg

Wind Spd Definition
km/h
Visibility Definition
km
Stn Press Definition
kPa
Hmdx Definition


Wind Chill Definition


Weather Definition


00:00 7.2 4.4 82 0.0 7 9 16.1 99.83     LegendNANA
01:00 6.2 4.8 91 0.0 LegendMM 4 16.1 99.84     LegendNANA
02:00 7.0 5.4 90 0.0 16 11 16.1 99.83     LegendNANA
03:00 5.6 4.4 92 0.0 36 11 16.1 99.86     LegendNANA
04:00 5.7 4.5 92 0.0 23 13 16.1 99.93     Rain
05:00 5.0 4.1 94 0.0 27 11 16.1 99.99     Rain
06:00 5.0 4.1 94 0.5 5 5 16.1 100.04     Rain
07:00 6.2 5.0 92 0.0 5 8 16.1 100.05     LegendNANA
08:00 7.4 5.4 87 0.0 6 8 16.1 100.06     LegendNANA
09:00 8.6 4.0 73 0.0 LegendMM 4 16.1 100.07     LegendNANA
10:00 8.8 3.7 70 0.0 31 8 16.1 100.08     LegendNANA
11:00 8.8 3.8 71 0.0 34 8 16.1 100.09     LegendNANA
12:00 9.0 3.3 67 0.0 35 8 16.1 100.08     LegendNANA
13:00 9.5 2.0 59 0.0 33 9 16.1 100.10     LegendNANA
14:00 9.4 2.4 61 0.0 34 8 16.1 100.12     LegendNANA
15:00 9.8 1.7 57 0.0 32 5 16.1 100.14     LegendNANA
16:00 10.2 1.3 54 0.0 34 5 16.1 100.14     LegendNANA
17:00 9.6 1.9 59 0.0 4 15 16.1 100.16     LegendNANA
18:00 9.7 1.3 56 0.0 6 9 16.1 100.18     LegendNANA
19:00 9.0 2.5 64 0.0 4 8 16.1 100.21     LegendNANA
20:00 7.3 4.1 80 0.0 25 8 16.1 100.24     LegendNANA
21:00 7.6 4.8 82 0.0 25 8 16.1 100.26     LegendNANA
22:00 6.9 5.2 89 0.0 LegendMM 4 16.1 100.26     LegendNANA
23:00 6.2 4.6 89 0.0 LegendMM 4 16.1 100.28     LegendNANA

Notes on Data Quality.

Legend

  • E = Estimated
  • M = Missing
  • NA = Not Available*
  • [empty] = Indicates an unobserved value
Date modified: